Aeroporto :
LOGIN :

Iscrizione | Disclaimer

   EN    FR    IT 

 










Sommario :    VFR   VFR Marginale   IFR   IFR Intensivo   IFR Molto Intensivo
Visibilità : 
Base nubi : 
>= 8 km
>= 3000ft
5 / 8 km
1000 / 3000 ft
1500m / 5 km
500 / 1000 ft
800 / 1500m
200 / 500 ft
< 800m
< 200 ft
Simboli :   Temporali  Nebbia  Neve Forte  Precipitazioni Forti  Vento > 20 kt
SIGMETs :   Varie  Temporali  Ghiacco  Turbolenza  Onda orograficha  Ceneri Vulcaniche







- Altitudine del aeroporto : 681 ft
- Codice IATA : LBA
- Carte del aeroporto


EGNM - Leeds Bradford

ULTIMO METAR :
  • 190050Z 05007KT 020V090 9999 SCT030 06/05 Q1029

METARs OBSOLETI :
  • 190020Z 05007KT 010V090 9999 SCT030 05/05 Q1029
  • 182350Z 05006KT 010V100 9999 BKN022 05/04 Q1029
  • 182250Z 05008KT 010V090 9999 SCT014 05/05 Q1030
  • 182220Z 05007KT 360V090 CAVOK 04/04 Q1030

TAF TAF EGNM
Valido dal 19 a 00 ore il 20 a 00 ore UTC


182256Z 1900/1924 06008KT 9999 FEW015
BECMG 1900/1903 8000 BKN012
PROB30
TEMPO 1901/1909 4000 -DZ BR BKN007
BECMG 1909/1911 9999 SCT015
PROB30
TEMPO 1911/1924 05015G25KT 7000 SHRA BKN012
ATIS : +44 113 250 9696 (x2489)
Nessun NOTAM noto per questo aeroporto.



MetMap, La meteo Aeronautica in un colpo d'occhio ! - Copyright ORBIFLY Dicembre 2007 - Disclaimer

ORBIFLY MET'MAP TEAM :

Programmazione e sviluppo : Alexandra Zaïnal
Concezione e sviluppo : Baudouin d'Aumeries
Co-Programmazione e sviluppo : Marc-Olivier Méhu
Supporto tecnico e logistico : Manuel Goepfert
Aiuto per la traduzione : Arnaldo La Scala

Contatto : metmap@orbifly.com




FONTI E CREDITI :

   NOAA